When you browse on this site, cookies collect data to enhance your experience and personalize the content and advertising you see.
Visit our Privacy Policy to learn more. By continuing to use the site, you agree to this use of cookies and data.
  • In Österreich
  • Länderverzeichnis
  • Für 7 Tage
  • Wassertemperatur
  • Wetterkarte
  • News
  • Widgets
  • user-avatar
    Anmelden

    Stündliche Wetter Zatysha

    Heute, 22 September, Sonntag

    Zeit Temperatur Niederschläge Wind Luftdruck Luftfeuchtigkeit
    00:00 +10°C° 0.1 mm 6 m/S 746 mmHg 81%
    01:00 +11°C° 0.1 mm 6 m/S 746 mmHg 81%
    02:00 +12°C° 0 mm 5 m/S 746 mmHg 79%
    03:00 +11°C° 0 mm 6 m/S 745 mmHg 78%
    04:00 +11°C° 0 mm 6 m/S 745 mmHg 78%
    05:00 +11°C° 0 mm 6 m/S 745 mmHg 77%
    06:00 +13°C° 0 mm 6 m/S 745 mmHg 76%
    07:00 +12°C° 0 mm 7 m/S 745 mmHg 74%
    08:00 +12°C° 0 mm 7 m/S 746 mmHg 73%
    09:00 +14°C° 0 mm 7 m/S 746 mmHg 71%
    10:00 +14°C° 0 mm 7 m/S 746 mmHg 69%
    11:00 +14°C° 0 mm 7 m/S 746 mmHg 68%
    12:00 +15°C° 0 mm 6 m/S 746 mmHg 65%
    13:00 +16°C° 0 mm 6 m/S 745 mmHg 62%
    14:00 +16°C° 0 mm 6 m/S 745 mmHg 59%
    15:00 +16°C° 0 mm 6 m/S 745 mmHg 61%
    16:00 +16°C° 0 mm 5 m/S 744 mmHg 62%
    17:00 +16°C° 0 mm 5 m/S 744 mmHg 63%
    18:00 +14°C° 0 mm 4 m/S 744 mmHg 71%
    19:00 +13°C° 0 mm 3 m/S 744 mmHg 78%
    20:00 +11°C° 0 mm 3 m/S 744 mmHg 86%
    21:00 +11°C° 0 mm 3 m/S 744 mmHg 87%
    22:00 +11°C° 0 mm 3 m/S 744 mmHg 89%
    23:00 +11°C° 0 mm 4 m/S 744 mmHg 90%

    Morgen, 23 September, Montag

    Zeit Temperatur Niederschläge Wind Luftdruck Luftfeuchtigkeit
    00:00 +10°C° 0 mm 3 m/S 745 mmHg 91%
    01:00 +10°C° 0 mm 3 m/S 745 mmHg 92%
    02:00 +10°C° 0 mm 3 m/S 745 mmHg 93%
    03:00 +9°C° 0 mm 3 m/S 745 mmHg 92%
    04:00 +9°C° 0 mm 3 m/S 746 mmHg 90%
    05:00 +8°C° 0 mm 4 m/S 746 mmHg 88%
    06:00 +8°C° 0 mm 4 m/S 746 mmHg 83%
    07:00 +7°C° 0 mm 4 m/S 747 mmHg 78%
    08:00 +7°C° 0 mm 4 m/S 747 mmHg 73%
    09:00 +10°C° 0 mm 4 m/S 747 mmHg 65%
    10:00 +11°C° 0 mm 4 m/S 748 mmHg 57%
    11:00 +12°C° 0 mm 4 m/S 748 mmHg 50%
    12:00 +13°C° 0 mm 3 m/S 748 mmHg 45%
    13:00 +13°C° 0 mm 3 m/S 748 mmHg 41%
    14:00 +14°C° 0 mm 3 m/S 748 mmHg 36%
    15:00 +14°C° 0 mm 3 m/S 748 mmHg 35%
    16:00 +13°C° 0 mm 3 m/S 748 mmHg 35%
    17:00 +13°C° 0 mm 3 m/S 748 mmHg 34%
    18:00 +11°C° 0 mm 3 m/S 748 mmHg 36%
    19:00 +9°C° 0 mm 3 m/S 748 mmHg 37%
    20:00 +8°C° 0 mm 3 m/S 748 mmHg 39%
    21:00 +7°C° 0 mm 3 m/S 748 mmHg 43%
    22:00 +5°C° 0 mm 3 m/S 749 mmHg 46%
    23:00 +4°C° 0 mm 3 m/S 749 mmHg 50%

    übermorgen, 24 September, Dienstag

    Zeit Temperatur Niederschläge Wind Luftdruck Luftfeuchtigkeit
    00:00 +4°C° 0 mm 3 m/S 749 mmHg 53%
    01:00 +3°C° 0 mm 3 m/S 749 mmHg 56%
    02:00 +4°C° 0 mm 2 m/S 749 mmHg 59%
    03:00 +3°C° 0 mm 2 m/S 748 mmHg 61%
    04:00 +3°C° 0 mm 2 m/S 748 mmHg 63%
    05:00 +3°C° 0 mm 2 m/S 748 mmHg 65%
    06:00 +3°C° 0 mm 3 m/S 748 mmHg 61%
    07:00 +5°C° 0 mm 3 m/S 748 mmHg 56%
    08:00 +7°C° 0 mm 3 m/S 748 mmHg 51%
    09:00 +9°C° 0 mm 3 m/S 748 mmHg 44%
    10:00 +11°C° 0 mm 3 m/S 748 mmHg 37%
    11:00 +13°C° 0 mm 3 m/S 748 mmHg 31%
    12:00 +14°C° 0 mm 3 m/S 748 mmHg 29%
    13:00 +16°C° 0 mm 3 m/S 747 mmHg 28%
    14:00 +17°C° 0 mm 2 m/S 747 mmHg 26%
    15:00 +16°C° 0 mm 2 m/S 747 mmHg 28%
    16:00 +15°C° 0 mm 2 m/S 746 mmHg 31%
    17:00 +15°C° 0 mm 2 m/S 746 mmHg 33%
    18:00 +12°C° 0 mm 3 m/S 746 mmHg 34%
    19:00 +10°C° 0 mm 3 m/S 746 mmHg 35%
    20:00 +9°C° 0 mm 3 m/S 746 mmHg 36%
    21:00 +8°C° 0 mm 3 m/S 746 mmHg 38%
    22:00 +8°C° 0 mm 3 m/S 746 mmHg 39%
    23:00 +7°C° 0 mm 3 m/S 746 mmHg 41%

    25 September, Mittwoch

    Zeit Temperatur Niederschläge Wind Luftdruck Luftfeuchtigkeit
    00:00 +8°C° 0 mm 3 m/S 746 mmHg 41%
    01:00 +8°C° 0 mm 3 m/S 746 mmHg 42%
    02:00 +8°C° 0 mm 3 m/S 746 mmHg 42%
    03:00 +7°C° 0 mm 4 m/S 746 mmHg 43%
    04:00 +8°C° 0 mm 4 m/S 746 mmHg 44%
    05:00 +8°C° 0 mm 4 m/S 746 mmHg 45%
    06:00 +10°C° 0 mm 4 m/S 746 mmHg 44%
    07:00 +10°C° 0 mm 4 m/S 746 mmHg 42%
    08:00 +11°C° 0 mm 4 m/S 745 mmHg 41%
    09:00 +13°C° 0 mm 4 m/S 745 mmHg 39%
    10:00 +14°C° 0 mm 5 m/S 745 mmHg 38%
    11:00 +16°C° 0 mm 5 m/S 745 mmHg 36%
    12:00 +17°C° 0 mm 5 m/S 745 mmHg 37%
    13:00 +18°C° 0 mm 4 m/S 745 mmHg 38%
    14:00 +19°C° 0 mm 4 m/S 744 mmHg 39%
    15:00 +19°C° 0 mm 4 m/S 744 mmHg 42%
    16:00 +19°C° 0 mm 4 m/S 744 mmHg 45%
    17:00 +18°C° 0 mm 3 m/S 743 mmHg 48%
    18:00 +17°C° 0 mm 4 m/S 743 mmHg 50%
    19:00 +15°C° 0 mm 4 m/S 743 mmHg 52%
    20:00 +14°C° 0 mm 5 m/S 744 mmHg 54%
    21:00 +14°C° 0 mm 4 m/S 743 mmHg 56%
    22:00 +14°C° 0 mm 4 m/S 743 mmHg 57%
    23:00 +14°C° 0 mm 4 m/S 743 mmHg 59%

    26 September, Donnerstag

    Zeit Temperatur Niederschläge Wind Luftdruck Luftfeuchtigkeit
    00:00 +14°C° 0 mm 4 m/S 743 mmHg 59%
    01:00 +14°C° 0 mm 4 m/S 743 mmHg 59%
    02:00 +14°C° 0 mm 4 m/S 743 mmHg 59%
    03:00 +14°C° 0 mm 4 m/S 743 mmHg 64%
    04:00 +14°C° 0 mm 4 m/S 743 mmHg 68%
    05:00 +14°C° 0 mm 5 m/S 743 mmHg 73%
    06:00 +14°C° 0.4 mm 5 m/S 743 mmHg 75%
    07:00 +13°C° 0.4 mm 5 m/S 742 mmHg 77%
    08:00 +13°C° 0.4 mm 6 m/S 742 mmHg 79%
    09:00 +13°C° 0.7 mm 6 m/S 742 mmHg 81%
    10:00 +13°C° 0.7 mm 6 m/S 743 mmHg 82%
    11:00 +11°C° 0.7 mm 7 m/S 743 mmHg 84%
    12:00 +11°C° 0.9 mm 6 m/S 743 mmHg 85%
    13:00 +10°C° 0.9 mm 6 m/S 742 mmHg 86%
    14:00 +10°C° 0.9 mm 6 m/S 742 mmHg 87%
    15:00 +10°C° 0.1 mm 6 m/S 742 mmHg 86%
    16:00 +10°C° 0.1 mm 5 m/S 742 mmHg 85%
    17:00 +10°C° 0.1 mm 5 m/S 742 mmHg 85%
    18:00 +11°C° 0 mm 4 m/S 742 mmHg 88%
    19:00 +11°C° 0 mm 4 m/S 742 mmHg 91%
    20:00 +10°C° 0 mm 3 m/S 742 mmHg 94%
    21:00 +10°C° 0 mm 3 m/S 742 mmHg 94%
    22:00 +11°C° 0 mm 3 m/S 742 mmHg 93%
    23:00 +11°C° 0 mm 3 m/S 742 mmHg 93%

    27 September, Freitag

    Zeit Temperatur Niederschläge Wind Luftdruck Luftfeuchtigkeit
    00:00 +11°C° 0 mm 3 m/S 742 mmHg 93%
    01:00 +11°C° 0 mm 3 m/S 742 mmHg 93%
    02:00 +11°C° 0 mm 3 m/S 742 mmHg 94%
    03:00 +11°C° 0 mm 3 m/S 742 mmHg 94%
    04:00 +10°C° 0 mm 3 m/S 741 mmHg 95%
    05:00 +10°C° 0 mm 3 m/S 741 mmHg 95%
    06:00 +11°C° 0 mm 3 m/S 741 mmHg 92%
    07:00 +12°C° 0 mm 3 m/S 741 mmHg 89%
    08:00 +13°C° 0 mm 4 m/S 741 mmHg 85%
    09:00 +14°C° 0 mm 4 m/S 742 mmHg 82%
    10:00 +15°C° 0 mm 5 m/S 742 mmHg 78%
    11:00 +16°C° 0 mm 5 m/S 742 mmHg 75%
    12:00 +15°C° 0 mm 5 m/S 742 mmHg 75%
    13:00 +15°C° 0 mm 5 m/S 742 mmHg 75%
    14:00 +15°C° 0 mm 5 m/S 742 mmHg 74%
    15:00 +14°C° 0 mm 5 m/S 742 mmHg 76%
    16:00 +14°C° 0 mm 4 m/S 742 mmHg 78%
    17:00 +14°C° 0 mm 3 m/S 743 mmHg 79%
    18:00 +13°C° 0 mm 3 m/S 743 mmHg 84%
    19:00 +12°C° 0 mm 3 m/S 744 mmHg 89%
    20:00 +11°C° 0 mm 3 m/S 744 mmHg 94%
    21:00 +10°C° 0 mm 3 m/S 744 mmHg 94%
    22:00 +10°C° 0 mm 3 m/S 745 mmHg 95%
    23:00 +9°C° 0 mm 3 m/S 745 mmHg 95%
    Mehr zeigen